Location: Unspecified
(0.0000°N, 0.0000°E)
Time: 13:56:44
(UTC+00:00)

Altair - Pass Details

Date: 27 October 2021
Orbit: 1502 x 1682 km, 47.2° (Epoch: 26 November)

Event Time Altitude Azimuth Distance (km) Brightness Sun altitude
Rises 01:17:37 0° 268° (W) 4,629 - -63.5°
Reaches altitude 10° 01:24:05 10° 301° (WNW) 3,648 - -62.1°
Maximum altitude 01:26:19 11° 316° (NW) 3,571 - -61.6°
Drops below altitude 10° 01:28:34 10° 331° (NNW) 3,657 - -61.1°
Sets 01:35:11 0° 4° (N) 4,668 - -59.6°
